DW0265 Weather Reports


time (UTC)temp
F
wind
direction
speed
knots
gust
knots
rain 1hr
in
rain 24hr
in
rain mn
in
humidity
%
barometer
mb
20260506083505 50 349 1.7 10.4 0.00 0.00 0.00 73 1013.5
20260506040504 48 344 0.9 4.3 0.00 0.00 0.00 78 1012.8
20260506040004 48 323 0.9 4.3 0.00 0.00 0.00 77 1012.7
20260506030505 50 350 1.7 4.3 0.00 0.00 0.00 78 1012.8
20260506030005 50 333 1.7 7.0 0.00 0.00 0.00 78 1012.7
20260506023005 50 338 0.9 5.2 0.00 0.00 0.00 78 1012.8
20260506013505 51 33 0.9 2.6 0.00 0.00 0.00 75 1013.0
20260506003006 52 50 0.0 6.1 0.00 0.00 0.00 73 1013.2
20260505230005 53 35 0.0 10.4 0.00 0.00 0.00 75 1013.2
20260505220505 54 26 0.0 0.0 0.00 0.00 0.00 70 1013.1
20260505203505 56 73 0.0 0.0 0.00 0.00 0.00 69 1012.5
20260505200505 56 320 0.0 0.0 0.00 0.00 0.00 70 1012.2
20260505190005 57 320 0.0 0.0 0.00 0.00 0.00 66 1011.8
20260505183004 58 320 0.0 0.0 0.00 0.00 0.00 68 1011.5
20260505180005 58 320 0.0 0.0 0.00 0.00 0.00 68 1011.6
20260505173005 59 340 0.0 2.6 0.00 0.00 0.00 63 1011.6
20260505170505 59 14 0.0 0.0 0.00 0.00 0.00 63 1011.6
20260505170005 59 14 0.0 0.0 0.00 0.00 0.00 63 1011.6
20260505153006 61 342 0.9 4.3 0.00 0.00 0.00 59 1011.8
20260505123005 62 44 0.0 4.3 0.00 0.00 0.00 56 1012.4
20260505113505 61 61 0.9 2.6 0.00 0.00 0.00 59 1012.5
20260505113004 61 9 0.9 10.4 0.00 0.00 0.00 57 1012.6
20260505110505 60 54 2.6 7.8 0.00 0.00 0.00 62 1012.7
20260505100504 58 328 3.5 7.0 0.00 0.00 0.00 72 1013.1
20260505100004 58 0 0.0 7.8 0.00 0.00 0.00 72 1013.1